FW1466 Weather Reports


time (UTC)temp
C
wind
direction
speed
KPH
gust
KPH
rain 1hr
cm
rain 24hr
cm
rain mn
cm
humidity
%
barometer
mb
20260504081508 7 258 0.0 0.0 0.00 0.25 0.00 88 1004.6
20260504044530 13 147 0.0 3.2 0.00 0.25 0.25 74 1006.4
20260504043030 13 194 0.0 3.2 0.00 0.25 0.25 73 1006.3
20260504041529 13 194 0.0 3.2 0.00 0.25 0.25 72 1006.3
20260504040048 13 163 0.0 4.8 0.00 0.25 0.25 71 1006.2
20260504034528 13 198 0.0 3.2 0.00 0.25 0.25 70 1006.3
20260504033028 13 203 0.0 0.0 0.00 0.25 0.25 69 1006.6
20260504031527 14 203 0.0 8.0 0.00 0.25 0.25 69 1006.5
20260504030027 14 231 0.0 0.0 0.00 0.25 0.25 68 1006.7
20260504024526 14 231 0.0 0.0 0.00 0.25 0.25 67 1006.7
20260504023026 15 231 0.0 0.0 0.00 0.25 0.25 67 1006.6
20260504021525 15 231 0.0 0.0 0.00 0.25 0.25 67 1006.5
20260504020025 15 234 0.0 1.6 0.00 0.25 0.25 66 1006.4
20260504014526 15 234 0.0 3.2 0.00 0.25 0.25 65 1006.4
20260504013025 16 234 0.0 3.2 0.00 0.25 0.25 65 1006.2
20260504011525 16 234 0.0 3.2 0.00 0.25 0.25 63 1006.3
20260504010023 17 234 0.0 3.2 0.00 0.25 0.25 61 1006.1
20260504004533 17 311 0.0 3.2 0.00 0.25 0.25 60 1006.2
20260504003021 18 312 1.6 6.4 0.00 0.25 0.25 58 1006.1
20260504001521 18 19 1.6 4.8 0.00 0.25 0.25 56 1006.2
20260504000021 19 22 0.0 6.4 0.00 0.25 0.25 55 1006.2
20260503234519 19 196 3.2 11.3 0.00 0.25 0.25 52 1006.1
20260503233021 19 264 1.6 12.9 0.00 0.25 0.25 53 1006.2
20260503231518 20 271 1.6 16.1 0.00 0.25 0.25 52 1006.3
20260503230017 20 278 4.8 16.1 0.00 0.25 0.25 51 1006.3
20260503224515 20 238 4.8 14.5 0.00 0.25 0.25 50 1006.4
20260503223014 20 266 3.2 11.3 0.00 0.25 0.25 51 1006.5
20260503221512 20 288 1.6 11.3 0.00 0.25 0.25 52 1006.7
20260503220011 19 165 1.6 9.7 0.00 0.25 0.25 51 1006.8
20260503214509 20 296 3.2 14.5 0.00 0.25 0.25 51 1006.9
20260503213007 19 325 3.2 12.9 0.00 0.25 0.25 49 1007.1
20260503211505 19 162 1.6 14.5 0.00 0.25 0.25 53 1007.5
20260503210003 18 158 3.2 14.5 0.00 0.25 0.25 51 1007.7
20260503204600 19 321 3.2 16.1 0.00 0.25 0.25 52 1008.1
20260503203058 18 117 1.6 17.7 0.00 0.25 0.25 52 1008.4
20260503201556 18 213 4.8 16.1 0.00 0.25 0.25 50 1008.5
20260503200059 17 241 6.4 22.5 0.00 0.25 0.25 49 1008.7
20260503194552 17 176 4.8 11.3 0.00 0.25 0.25 51 1009.1
20260503193105 18 242 3.2 17.7 0.00 0.25 0.25 52 1009.3
20260503191546 17 171 4.8 20.9 0.00 0.25 0.25 56 1009.6
20260503190044 16 134 9.7 25.7 0.00 0.25 0.25 60 1009.7
20260503184537 15 173 11.3 22.5 0.00 0.25 0.25 65 1009.9
20260503183038 14 172 8.0 20.9 0.00 0.25 0.25 71 1010.2
20260503181529 13 193 6.4 20.9 0.03 0.25 0.25 76 1010.4
20260503180027 12 144 11.3 22.5 0.03 0.25 0.25 78 1010.8
20260503174529 10 167 4.8 14.5 0.05 0.25 0.25 87 1011.2
20260503173024 9 162 4.8 14.5 0.05 0.25 0.25 90 1011.5
20260503171522 8 169 4.8 14.5 0.05 0.23 0.23 89 1012.4